Date String (YYYY-MM-DD hh:mm:ss) UTC,Instrument flags,absolute air pressure of the measurement (hPa),sample flow rate (lpm),inlet stack bypass flow (lpm),air temperature of the measurement (°C),ambient temperature measured by the external sensor (°C),aerosol sample conditioner tube jacket temperature (°C),OPC LED temperature (°C),internal box temperature (°C),relative humidity of the measurement (%),span deviation,mass concentration of particles derived from Lorenz-Mie calculation of OPC scattering (μg/m³),mass concentration of particles derived from Lorenz-Mie calculation of OPC scattering (μg/m³),mass concentration of particles derived from Lorenz-Mie calculation of OPC scattering (μg/m³)
DateTimeUTC,F1_M11,P_M11,Q1_M11,Q2_M11,T1_M11,T2_M11,T3_M11,T4_M11,T5_M11,U1_M11,ZSPAN_M11,X0_M11,X2_M11,X1_M11
2023-11-25 06:00:00,SystemResetWarning,0829.2,4.99,000.00,019.4,019.4,000.0,027.5,021.1,11.6,0000.0,0009.80,0005.33,0004.89
2023-11-25 06:01:00,SystemResetWarning,0829.1,5.01,000.00,019.4,019.3,000.0,027.5,020.8,11.6,0000.0,0009.76,0005.35,0004.92
2023-11-25 06:02:00,SystemResetWarning,0829.2,5.00,000.00,019.4,019.2,000.0,027.5,020.7,11.6,0000.0,0009.60,0005.37,0004.94
2023-11-25 06:03:00,SystemResetWarning,0829.2,5.01,000.00,019.4,019.0,000.0,027.5,020.7,11.6,0000.0,0009.26,0005.40,0004.94
2023-11-25 06:04:00,SystemResetWarning,0829.2,5.01,000.00,019.3,018.9,000.0,027.6,020.6,11.6,0000.0,0009.11,0005.42,0004.96
2023-11-25 06:05:00,SystemResetWarning,0829.1,5.00,000.00,019.3,018.8,000.0,027.6,020.6,11.6,0000.0,0009.10,0005.43,0004.97
2023-11-25 06:06:00,SystemResetWarning,0829.1,5.00,000.00,019.3,018.7,000.0,027.6,020.5,11.6,0000.0,0008.44,0005.44,0004.98
2023-11-25 06:07:00,SystemResetWarning,0829.1,4.99,000.00,019.3,018.7,000.0,027.6,020.5,11.6,0000.0,0008.44,0005.45,0004.98
2023-11-25 06:08:00,SystemResetWarning,0829.0,5.00,000.00,019.3,018.6,000.0,027.6,020.5,11.6,0000.0,0008.47,0005.46,0004.98
2023-11-25 06:09:00,SystemResetWarning,0829.0,5.00,000.00,019.3,018.5,000.0,027.6,020.5,11.6,0000.0,0008.49,0005.47,0004.98
2023-11-25 06:10:00,SystemResetWarning,0829.0,5.00,000.00,019.2,018.5,000.0,027.6,020.4,11.6,0000.0,0008.71,0005.43,0004.97
2023-11-25 06:11:00,SystemResetWarning,0829.0,5.01,000.00,019.2,018.4,000.0,027.5,020.4,11.6,0000.0,0008.40,0005.38,0004.95
2023-11-25 06:12:00,SystemResetWarning,0829.0,5.01,000.00,019.2,018.4,000.0,027.5,020.4,11.6,0000.0,0008.34,0005.38,0004.95
2023-11-25 06:13:00,SystemResetWarning,0829.0,5.00,000.00,019.2,018.3,000.0,027.5,020.3,11.6,0000.0,0008.35,0005.38,0004.95
2023-11-25 06:14:00,SystemResetWarning,0829.0,5.00,000.00,019.2,018.3,000.0,027.5,020.3,11.6,0000.0,0008.34,0005.34,0004.94
2023-11-25 06:15:00,SystemResetWarning,0829.1,4.99,000.00,019.1,018.3,000.0,027.5,020.3,11.6,0000.0,0008.37,0005.34,0004.93
2023-11-25 06:16:00,SystemResetWarning,0829.1,4.99,000.00,019.1,018.2,000.0,027.5,020.3,11.7,0000.0,0008.40,0005.35,0004.91
2023-11-25 06:17:00,SystemResetWarning,0829.1,5.00,000.00,019.2,018.5,000.0,027.5,020.8,11.6,0000.0,0008.54,0005.38,0004.90
2023-11-25 06:18:00,SystemResetWarning,0829.1,5.01,000.00,019.3,019.3,000.0,027.5,021.2,11.5,0000.0,0008.67,0005.40,0004.91
2023-11-25 06:19:00,SystemResetWarning,0829.1,4.99,000.00,019.4,019.5,000.0,027.5,021.2,11.4,0000.0,0008.72,0005.40,0004.91
2023-11-25 06:20:00,SystemResetWarning,0829.1,4.99,000.00,019.4,019.4,000.0,027.6,020.9,11.4,0000.0,0008.75,0005.41,0004.92
2023-11-25 06:21:00,SystemResetWarning,0829.1,4.99,000.00,019.4,019.2,000.0,027.6,020.7,11.5,0000.0,0008.47,0005.43,0004.94
2023-11-25 06:22:00,SystemResetWarning,0829.0,5.00,000.00,019.4,019.1,000.0,027.6,020.6,11.5,0000.0,0008.58,0005.46,0004.95
2023-11-25 06:23:00,SystemResetWarning,0829.0,5.01,000.00,019.4,018.9,000.0,027.6,020.5,11.5,0000.0,0008.85,0005.49,0004.96
2023-11-25 06:24:00,SystemResetWarning,0829.0,5.00,000.00,019.3,018.8,000.0,027.6,020.5,11.5,0000.0,0008.92,0005.51,0004.96
2023-11-25 06:25:00,SystemResetWarning,0828.9,5.01,000.00,019.3,018.7,000.0,027.6,020.5,11.5,0000.0,0009.36,0005.56,0004.99
2023-11-25 06:26:00,SystemResetWarning,0828.9,5.00,000.00,019.3,018.7,000.0,027.6,020.5,11.5,0000.0,0009.59,0005.61,0005.04
2023-11-25 06:27:00,SystemResetWarning,0828.9,4.99,000.00,019.3,018.6,000.0,027.6,020.5,11.5,0000.0,0009.62,0005.65,0005.09
2023-11-25 06:28:00,SystemResetWarning,0829.0,4.99,000.00,019.3,018.5,000.0,027.6,020.4,11.5,0000.0,0009.62,0005.68,0005.14
2023-11-25 06:29:00,SystemResetWarning,0829.0,5.01,000.00,019.2,018.4,000.0,027.6,020.4,11.5,0000.0,0009.90,0005.75,0005.20
2023-11-25 06:30:00,SystemResetWarning,0829.0,5.00,000.00,019.2,018.4,000.0,027.5,020.3,11.6,0000.0,0009.91,0005.80,0005.25
2023-11-25 06:31:00,SystemResetWarning,0829.1,5.00,000.00,019.2,018.4,000.0,027.5,020.3,11.6,0000.0,0009.88,0005.80,0005.27
2023-11-25 06:32:00,SystemResetWarning,0829.0,5.00,000.00,019.2,018.3,000.0,027.5,020.3,11.6,0000.0,0009.94,0005.85,0005.30
2023-11-25 06:33:00,SystemResetWarning,0829.0,5.00,000.00,019.2,018.3,000.0,027.5,020.3,11.6,0000.0,0009.84,0005.88,0005.34
2023-11-25 06:34:00,SystemResetWarning,0829.0,5.01,000.00,019.1,018.2,000.0,027.5,020.3,11.6,0000.0,0009.62,0005.89,0005.38
2023-11-25 06:35:00,SystemResetWarning,0829.0,5.01,000.00,019.1,018.3,000.0,027.5,020.4,11.6,0000.0,0009.59,0005.92,0005.41
2023-11-25 06:36:00,SystemResetWarning,0829.0,5.00,000.00,019.2,018.7,000.0,027.5,020.9,11.5,0000.0,0009.20,0005.95,0005.44
2023-11-25 06:37:00,SystemResetWarning,0829.0,5.00,000.00,019.4,019.4,000.0,027.5,021.3,11.4,0000.0,0008.96,0005.95,0005.45
2023-11-25 06:38:00,SystemResetWarning,0829.0,5.00,000.00,019.5,019.5,000.0,027.5,021.0,11.4,0000.0,0008.91,0005.95,0005.46
2023-11-25 06:39:00,SystemResetWarning,0829.0,4.99,000.00,019.4,019.3,000.0,027.6,020.8,11.4,0000.0,0008.81,0005.95,0005.48
2023-11-25 06:40:00,SystemResetWarning,0828.9,5.00,000.00,019.4,019.2,000.0,027.6,020.7,11.4,0000.0,0008.49,0005.91,0005.48
2023-11-25 06:41:00,SystemResetWarning,0828.9,5.01,000.00,019.4,019.0,000.0,027.6,020.6,11.4,0000.0,0008.72,0005.95,0005.53
2023-11-25 06:42:00,SystemResetWarning,0828.9,5.01,000.00,019.3,018.9,000.0,027.6,020.5,11.4,0000.0,0008.79,0006.02,0005.60
2023-11-25 06:43:00,SystemResetWarning,0828.9,5.00,000.00,019.3,018.8,000.0,027.6,020.5,11.4,0000.0,0008.79,0006.06,0005.63
2023-11-25 06:44:00,SystemResetWarning,0828.8,4.99,000.00,019.3,018.7,000.0,027.6,020.4,11.4,0000.0,0008.84,0006.10,0005.68
2023-11-25 06:45:00,SystemResetWarning,0828.8,4.99,000.00,019.3,018.6,000.0,027.6,020.4,11.4,0000.0,0008.89,0006.16,0005.74
2023-11-25 06:46:00,SystemResetWarning,0828.8,5.00,000.00,019.2,018.5,000.0,027.6,020.4,11.4,0000.0,0008.94,0006.23,0005.82
2023-11-25 06:47:00,SystemResetWarning,0828.8,5.01,000.00,019.2,018.5,000.0,027.6,020.4,11.4,0000.0,0008.98,0006.28,0005.87
2023-11-25 06:48:00,SystemResetWarning,0828.8,5.01,000.00,019.2,018.4,000.0,027.5,020.3,11.4,0000.0,0009.00,0006.31,0005.91
2023-11-25 06:49:00,SystemResetWarning,0828.8,5.00,000.00,019.2,018.3,000.0,027.5,020.3,11.4,0000.0,0009.14,0006.38,0005.94
2023-11-25 06:50:00,SystemResetWarning,0828.7,4.99,000.00,019.2,018.4,000.0,027.5,020.5,11.4,0000.0,0009.18,0006.40,0005.96
2023-11-25 06:51:00,SystemResetWarning,0828.8,5.00,000.00,019.3,018.9,000.0,027.5,021.0,11.4,0000.0,0009.16,0006.44,0005.99
2023-11-25 06:52:00,SystemResetWarning,0828.8,5.01,000.00,019.4,019.5,000.0,027.5,021.3,11.3,0000.0,0008.93,0006.44,0005.99
2023-11-25 06:53:00,SystemResetWarning,0828.7,5.00,000.00,019.5,019.5,000.0,027.6,021.0,11.3,0000.0,0008.99,0006.44,0005.99
2023-11-25 06:54:00,SystemResetWarning,0828.7,4.99,000.00,019.4,019.4,000.0,027.6,020.8,11.3,0000.0,0008.93,0006.42,0005.99
2023-11-25 06:55:00,SystemResetWarning,0828.6,4.99,000.00,019.4,019.2,000.0,027.6,020.6,11.3,0000.0,0008.84,0006.38,0005.99
2023-11-25 06:56:00,SystemResetWarning,0828.6,5.00,000.00,019.3,019.0,000.0,027.6,020.5,11.3,0000.0,0008.99,0006.37,0005.97
2023-11-25 06:57:00,SystemResetWarning,0828.6,5.02,000.00,019.3,018.9,000.0,027.6,020.4,11.3,0000.0,0008.99,0006.37,0005.95
2023-11-25 06:58:00,SystemResetWarning,0828.6,4.99,000.00,019.3,018.8,000.0,027.6,020.4,11.3,0000.0,0008.94,0006.34,0005.93
2023-11-25 06:59:00,SystemResetWarning,0828.6,4.99,000.00,019.3,018.7,000.0,027.6,020.4,11.3,0000.0,0008.96,0006.35,0005.94
